Location: Washington
(38.8950°N, 77.0370°W)
Time: 18:07:54
(UTC-04:00)

Amateur Radio Satellites - All Passes

Search period start: 28 May 2015 17:37
Search period end: 29 May 2015 17:37
Location: Washington, 38.8950°N, 77.0370°W

Satellite Date Start Highest point End Downlink Frequencies (MHz)
Time Altitude Azimuth
CUTE-I 28 May 17:44:48 17:49:09 27° 68° (ENE) 17:53:39 437.470
BEESAT 3 28 May 17:47:54 17:51:53 58° 118° (ESE) 17:55:56 437.485
AO-7 28 May 18:00:30 18:06:36 21° 269° (W) 18:12:20 29.400- 29.500
JAS-2 28 May 18:04:39 18:06:39 11° 272° (W) 18:08:06 435.910
Cubesat XI-IV 28 May 18:05:15 18:10:12 42° 71° (ENE) 18:15:14 437.490
MOZHAYETS 4 28 May 18:08:08 18:12:38 59° 285° (WNW) 18:17:08
CUBESAT XI-V 28 May 18:16:37 18:18:33 13° 89° (E) 18:20:46 437.345
BEESAT 2 28 May 18:39:11 18:43:10 47° 305° (NW) 18:47:11 435.950
YUBILEINY 28 May 18:39:58 18:48:30 57° 77° (ENE) 18:57:01 435.215
AIST 2 28 May 18:40:21 18:44:25 47° 117° (ESE) 18:48:34 435.215
Cosmos 2491 28 May 18:43:39 18:50:55 32° 85° (E) 18:58:28 435.465 / 435.565
PRISM 28 May 18:54:19 18:55:41 12° 90° (E) 18:57:18 437.425
RS-15 28 May 19:10:15 19:21:47 66° 245° (WSW) 19:33:42 29.354- 29.394
GOMX 1 28 May 19:12:29 19:13:47 11° 61° (ENE) 19:15:24 467.674
BRITE-PL 28 May 19:16:40 19:20:12 19° 65° (ENE) 19:24:05 437.365/2234.400
CUTE-I 28 May 19:24:15 19:29:07 36° 263° (W) 19:33:59 437.470
BEESAT 3 28 May 19:27:48 19:30:16 15° 316° (NW) 19:32:39 437.485
Cubesat XI-IV 28 May 19:46:20 19:50:32 23° 267° (W) 19:54:35 437.490
CANX-2 28 May 19:50:45 19:52:45 13° 67° (ENE) 19:54:57 2200.000
CUBESAT XI-V 28 May 19:51:49 19:56:28 60° 285° (WNW) 20:01:06 437.345
CUTE 1.7 + AOD 2 28 May 19:54:06 19:56:01 13° 66° (ENE) 19:58:08 437.475
DOVE 4 28 May 20:01:27 20:05:17 22° 67° (ENE) 20:09:19 437.250
AIST 1 28 May 20:04:37 20:07:39 20° 89° (E) 20:10:51
SEEDS 28 May 20:12:53 20:15:36 17° 68° (ENE) 20:18:27 437.485
STRAND 1 28 May 20:16:40 20:21:51 88° 102° (ESE) 20:27:01 437.568
AIST 2 28 May 20:20:12 20:23:17 19° 315° (NW) 20:26:18 435.215
COMPASS 1 28 May 20:23:01 20:25:48 18° 68° (ENE) 20:28:42 437.405
HO-68 28 May 20:25:50 20:32:43 53° 69° (ENE) 20:39:40 435.675
PRISM 28 May 20:27:27 20:31:31 52° 286° (WNW) 20:35:33 437.425
AAUSAT CUBESAT 2 28 May 20:33:18 20:36:17 20° 69° (ENE) 20:39:22 437.432
YUBILEINY 28 May 20:37:40 20:44:53 29° 275° (W) 20:51:49 435.215
Cosmos 2504 28 May 20:38:50 20:44:56 30° 71° (ENE) 20:51:11 435.465 / 435.565
Cosmos 2491 28 May 20:38:51 20:47:25 54° 284° (WNW) 20:56:02 435.465 / 435.565
M-CUBED/EXP-1 PRIME 28 May 20:40:46 20:44:03 67° 106° (ESE) 20:47:23 437.505
GOMX 1 28 May 20:45:53 20:51:03 84° 77° (ENE) 20:56:32 467.674
AUBIESAT-1 28 May 20:47:06 20:50:24 70° 108° (ESE) 20:53:44 437.475
UWE-3 28 May 20:50:40 20:52:26 12° 65° (ENE) 20:54:26 435.000/436.395/437.385
BRITE-PL 28 May 20:53:14 20:58:14 54° 262° (W) 21:03:38 437.365/2234.400
FUNcube-1 28 May 20:56:50 20:57:23 10° 64° (ENE) 20:58:13 145.935
CINEMA 3 28 May 21:01:54 21:06:32 40° 72° (ENE) 21:11:16 145.822/145.860
CANX-2 28 May 21:24:09 21:28:18 51° 261° (W) 21:32:28 2200.000
CUTE 1.7 + AOD 2 28 May 21:27:23 21:31:33 52° 261° (W) 21:35:43 437.475
RS-15 28 May 21:27:49 21:32:33 12° 261° (W) 21:36:02 29.354- 29.394
ZACube-1 28 May 21:34:38 21:38:29 27° 70° (ENE) 21:42:22 437.345
UKube-1 28 May 21:34:57 21:36:31 12° 64° (ENE) 21:38:18 .
DOVE 4 28 May 21:37:45 21:42:41 46° 263° (W) 21:47:47 437.250
CUBEBUG 2 28 May 21:40:38 21:45:14 50° 74° (ENE) 21:49:51 437.445
AIST 1 28 May 21:41:25 21:45:10 29° 285° (WNW) 21:48:54
Oscar 11 28 May 21:42:16 21:46:30 56° 74° (ENE) 21:50:45 145.826/435.025
DX 1 28 May 21:45:16 21:48:02 17° 67° (ENE) 21:50:58 434.975-435.025
SEEDS 28 May 21:47:13 21:51:10 37° 263° (W) 21:55:04 437.485
COMPASS 1 28 May 21:57:23 22:01:15 35° 263° (W) 22:05:05 437.405
STRAND 1 28 May 21:58:40 22:00:25 11° 298° (WNW) 22:01:51 437.568
VELOX 1 28 May 22:07:23 22:09:47 15° 66° (ENE) 22:12:22 145.980
AAUSAT CUBESAT 2 28 May 22:08:00 22:11:43 31° 264° (W) 22:15:25 437.432
HO-68 28 May 22:14:42 22:20:47 28° 266° (W) 22:26:42 435.675
ESTCUBE 1 28 May 22:19:01 22:20:25 12° 64° (ENE) 22:22:03 437.505/2401.250
DELFI C3 28 May 22:21:37 22:25:37 68° 258° (WSW) 22:29:38 145.870
UWE-3 28 May 22:23:46 22:28:27 70° 259° (W) 22:33:08 435.000/436.395/437.385
GOMX 1 28 May 22:28:33 22:30:02 11° 275° (W) 22:31:09 467.674
FUNcube-1 28 May 22:28:34 22:33:09 80° 259° (WSW) 22:37:44 145.935
Cosmos 2504 28 May 22:31:47 22:38:31 44° 270° (W) 22:45:14 435.465 / 435.565
AISAT 28 May 22:38:01 22:41:56 32° 71° (ENE) 22:45:57 437.250
CINEMA 3 28 May 22:39:58 22:43:53 22° 268° (W) 22:47:42 145.822/145.860
ANTELSAT 28 May 22:40:07 22:42:12 14° 90° (E) 22:44:30 437.575/2403.000
CUSAT 1 28 May 22:42:59 22:46:11 14° 55° (NE) 22:49:24 437.405
HUMSAT D 28 May 22:48:01 22:52:20 79° 77° (ENE) 22:56:39 437.325/437.525
ISS 28 May 23:01:14 23:04:27 66° 139° (SE) 23:07:41 145.825
UKube-1 28 May 23:07:55 23:12:11 61° 259° (W) 23:16:30 .
GONETS M04 28 May 23:10:09 23:16:06 21° 63° (ENE) 23:22:27
TIGRISAT 28 May 23:10:39 23:14:27 29° 95° (E) 23:18:13 435.000
QB50P1 28 May 23:10:44 23:12:40 13° 90° (E) 23:14:48 145.935-145.965
ZACube-1 28 May 23:10:48 23:14:46 27° 265° (W) 23:18:40 437.345
POLYITAN 1 28 May 23:13:35 23:15:51 14° 91° (E) 23:18:19 437.675
50 SAT 28 May 23:16:40 23:20:40 85° 254° (WSW) 23:24:41 437.505
CUBEBUG 2 28 May 23:19:14 23:22:14 16° 270° (W) 23:25:02 437.445
DX 1 28 May 23:19:52 23:24:00 41° 261° (W) 23:28:09 434.975-435.025
Oscar 11 28 May 23:21:27 23:23:06 12° 271° (W) 23:24:30 145.826/435.025
UNISAT 6 28 May 23:31:39 23:35:56 54° 99° (E) 23:40:08 437.425
CUBEBUG 1 28 May 23:33:56 23:38:14 65° 75° (ENE) 23:42:37 437.445
NANOSAT C BR1 28 May 23:39:55 23:43:36 28° 96° (E) 23:47:18 145.865
VELOX 1 28 May 23:41:39 23:45:57 50° 260° (W) 23:50:19 145.980
QB50P2 28 May 23:49:15 23:53:14 37° 98° (E) 23:57:13 145.880/145.840
ESTCUBE 1 28 May 23:52:20 23:56:46 68° 259° (WSW) 00:01:15 437.505/2401.250
POPSAT HIP 1 29 May 00:00:52 00:05:03 50° 99° (E) 00:09:11 437.405
DUCHIFAT 1 29 May 00:01:07 00:05:16 49° 99° (E) 00:09:23 145.980
SPROUT 29 May 00:05:14 00:09:12 37° 72° (ENE) 00:13:15 437.525
DANDE 29 May 00:05:36 00:13:02 52° 73° (ENE) 00:18:50 436.750
BUGSAT 1 29 May 00:14:58 00:19:07 48° 99° (E) 00:23:13 437.445
AISAT 29 May 00:15:07 00:18:36 22° 267° (W) 00:22:00 437.250
ANTELSAT 29 May 00:15:09 00:19:21 47° 287° (WNW) 00:23:27 437.575/2403.000
TISAT 1 29 May 00:20:28 00:24:26 40° 73° (ENE) 00:28:28 437.305
VERMONT LUNAR 29 May 00:21:35 00:23:34 15° 148° (SSE) 00:25:36 437.305
CUSAT 1 29 May 00:23:27 00:30:29 90° 58° (ENE) 00:35:45 437.405
ITUPSAT 1 29 May 00:37:45 00:38:52 11° 63° (ENE) 00:40:16 437.325
ISS 29 May 00:38:45 00:41:09 19° 337° (NNW) 00:43:32 145.825
BEESAT 29 May 00:43:07 00:45:08 13° 64° (ENE) 00:47:24 436.000
QB50P1 29 May 00:44:44 00:48:53 48° 286° (WNW) 00:52:58 145.935-145.965
TIGRISAT 29 May 00:47:39 00:51:05 22° 291° (WNW) 00:54:21 435.000
POLYITAN 1 29 May 00:47:58 00:52:03 44° 287° (WNW) 00:56:05 437.675
SWISSCUBE 29 May 00:50:55 00:53:53 17° 66° (ENE) 00:57:00 437.505
PCSat 29 May 00:56:51 01:02:15 84° 118° (ESE) 01:07:43 145.827
Cosmos 2499 29 May 01:03:05 01:06:56 16° 64° (ENE) 01:11:11 435.465 / 435.565
O/OREOS (USA 219) 29 May 01:03:09 01:07:08 31° 61° (ENE) 01:11:09 437.305
GONETS M04 29 May 01:05:23 01:14:12 81° 264° (W) 01:22:54
UNISAT 6 29 May 01:10:09 01:12:17 13° 295° (WNW) 01:14:13 437.425
CUBEBUG 1 29 May 01:14:27 01:15:08 10° 272° (W) 01:15:30 437.445
NANOSAT C BR1 29 May 01:15:55 01:19:19 23° 291° (WNW) 01:22:37 145.865
PHONESAT 2.4 29 May 01:15:59 01:17:18 12° 145° (SE) 01:18:43 2401.200-2431.200
QB50P2 29 May 01:25:56 01:28:52 18° 292° (WNW) 01:31:40 145.880/145.840
Oscar 19 29 May 01:35:56 01:39:22 18° 91° (E) 01:42:58 437.125/150
POPSAT HIP 1 29 May 01:38:15 01:40:32 14° 294° (WNW) 01:42:37 437.405
DUCHIFAT 1 29 May 01:38:23 01:40:41 14° 294° (WNW) 01:42:49 145.980
SPROUT 29 May 01:42:30 01:45:28 17° 268° (W) 01:48:18 437.525
DANDE 29 May 01:49:44 01:55:39 26° 277° (W) 02:00:23 436.750
KKS-1 29 May 01:50:56 01:51:44 11° 63° (ENE) 01:52:47 437.445
BUGSAT 1 29 May 01:51:49 01:54:12 14° 294° (WNW) 01:56:24 437.445
VERMONT LUNAR 29 May 01:57:12 02:00:25 66° 161° (SSE) 02:03:37 437.305
TISAT 1 29 May 01:57:46 02:00:27 16° 269° (W) 02:02:58 437.305
BEESAT 3 29 May 02:08:05 02:11:28 25° 49° (NE) 02:14:51 437.485
CUSAT 1 29 May 02:09:28 02:11:43 12° 283° (WNW) 02:13:23 437.405
SO-50 29 May 02:11:01 02:14:31 22° 111° (ESE) 02:18:14 436.795
ITUPSAT 1 29 May 02:11:24 02:16:10 80° 256° (WSW) 02:20:57 437.325
BEESAT 29 May 02:17:45 02:22:28 67° 258° (WSW) 02:27:14 436.000
SWISSCUBE 29 May 02:26:47 02:31:23 49° 261° (W) 02:36:00 437.505
O/OREOS (USA 219) 29 May 02:42:54 02:46:24 22° 257° (WSW) 02:49:49 437.305
PCSat 29 May 02:43:05 02:46:27 16° 317° (NW) 02:49:39 145.827
Gurwin Techsat 1B 29 May 02:44:24 02:48:33 24° 93° (E) 02:52:50 435.225
STARS 29 May 02:46:41 02:50:20 26° 69° (ENE) 02:54:04 437.465
PHONESAT 2.4 29 May 02:51:34 02:54:58 52° 159° (SSE) 02:58:22 2401.200-2431.200
Cosmos 2499 29 May 02:54:01 03:01:06 81° 264° (W) 03:08:20 435.465 / 435.565
BEESAT 2 29 May 02:59:22 03:03:29 68° 57° (ENE) 03:07:30 435.950
AIST 2 29 May 03:03:37 03:07:00 23° 48° (NE) 03:10:24 435.215
GONETS M04 29 May 03:05:30 03:09:48 14° 282° (WNW) 03:13:26
Oscar 19 29 May 03:14:05 03:19:04 49° 288° (WNW) 03:23:58 437.125/150
KKS-1 29 May 03:23:20 03:27:49 76° 259° (WSW) 03:32:19 437.445
ITAMSAT 1 29 May 03:32:43 03:37:57 72° 102° (ESE) 03:43:10 435.822/435.867
VERMONT LUNAR 29 May 03:34:27 03:37:39 62° 359° (N) 03:40:50 437.305
MOZHAYETS 4 29 May 03:35:19 03:36:24 11° 64° (ENE) 03:37:46
BEESAT 3 29 May 03:45:54 03:49:26 28° 246° (WSW) 03:52:51 437.485
SO-50 29 May 03:50:20 03:54:49 41° 308° (NW) 03:59:24 436.795
ISS 29 May 03:54:34 03:56:11 13° 17° (NNE) 03:57:50 145.825
AO-7 29 May 04:08:29 04:15:09 27° 94° (E) 04:22:04 29.400- 29.500
HORYU 2 29 May 04:09:36 04:13:11 24° 95° (E) 04:16:49 437.375
STARS 29 May 04:22:55 04:26:43 27° 265° (W) 04:30:29 437.465
Gurwin Techsat 1B 29 May 04:23:45 04:28:43 41° 290° (WNW) 04:33:38 435.225
PHONESAT 2.4 29 May 04:29:36 04:33:04 68° 354° (N) 04:36:32 2401.200-2431.200
AIST 2 29 May 04:41:51 04:45:39 33° 246° (WSW) 04:49:22 435.215
Cosmos 2499 29 May 04:51:34 04:53:16 11° 280° (W) 04:54:22 435.465 / 435.565
Cosmos 2491 29 May 04:56:39 05:00:27 14° 57° (ENE) 05:04:53 435.465 / 435.565
MOZHAYETS 4 29 May 05:08:32 05:13:06 74° 259° (W) 05:17:41
JAS-2 29 May 05:09:25 05:14:37 86° 287° (WNW) 05:20:04 435.910
VERMONT LUNAR 29 May 05:11:43 05:14:56 83° 197° (SSW) 05:18:08 437.305
ITAMSAT 1 29 May 05:14:05 05:16:55 14° 297° (WNW) 05:19:30 435.822/435.867
CUBESAT XI-V 29 May 05:20:04 05:21:26 11° 64° (ENE) 05:23:03 437.345
ISS 29 May 05:29:59 05:33:12 53° 36° (NE) 05:36:24 145.825
HORYU 2 29 May 05:46:00 05:49:50 28° 290° (WNW) 05:53:34 437.375
YUBILEINY 29 May 05:50:45 05:52:01 11° 77° (ENE) 05:54:07 435.215
STRAND 1 29 May 05:55:32 05:57:46 13° 63° (ENE) 06:00:17 437.568
AO-7 29 May 06:00:17 06:08:33 64° 292° (WNW) 06:16:45 29.400- 29.500
CUTE-I 29 May 06:05:11 06:06:30 11° 87° (E) 06:08:13 437.470
PHONESAT 2.4 29 May 06:07:50 06:11:19 83° 11° (N) 06:14:47 2401.200-2431.200
Cubesat XI-IV 29 May 06:24:35 06:28:12 19° 91° (E) 06:32:00 437.490
VERMONT LUNAR 29 May 06:49:22 06:51:51 21° 210° (SSW) 06:54:18 437.305
Cosmos 2491 29 May 06:50:27 06:59:18 74° 81° (E) 07:08:04 435.465 / 435.565
CUBESAT XI-V 29 May 06:53:45 06:58:20 72° 259° (W) 07:02:58 437.345
ISS 29 May 07:07:25 07:09:20 14° 230° (SW) 07:11:09 145.825
PRISM 29 May 07:16:01 07:20:06 87° 255° (WSW) 07:24:13 437.425
RS-15 29 May 07:23:55 07:31:10 22° 103° (ESE) 07:39:07 29.354- 29.394
M-CUBED/EXP-1 PRIME 29 May 07:27:26 07:31:39 79° 72° (ENE) 07:35:31 437.505
STRAND 1 29 May 07:31:21 07:36:25 74° 258° (WSW) 07:41:33 437.568
AUBIESAT-1 29 May 07:33:20 07:37:29 80° 72° (ENE) 07:41:19 437.475
YUBILEINY 29 May 07:38:48 07:47:27 69° 93° (E) 07:56:07 435.215
CUTE-I 29 May 07:41:57 07:47:20 82° 285° (WNW) 07:52:43 437.470
PHONESAT 2.4 29 May 07:46:10 07:49:16 30° 207° (SSW) 07:52:20 2401.200-2431.200
AIST 1 29 May 07:49:01 07:53:21 56° 80° (E) 07:57:42
AO-7 29 May 07:55:54 07:59:55 14° 311° (NW) 08:03:28 29.400- 29.500
Cubesat XI-IV 29 May 08:03:27 08:08:40 52° 288° (WNW) 08:13:51 437.490
Cosmos 2491 29 May 08:48:57 08:55:22 22° 278° (W) 09:01:21 435.465 / 435.565
GOMX 1 29 May 08:50:03 08:54:38 30° 93° (E) 08:59:02 467.674
BRITE-PL 29 May 08:59:28 09:05:02 60° 99° (E) 09:10:17 437.365/2234.400
CANX-2 29 May 09:10:57 09:14:34 28° 95° (E) 09:18:14 2200.000
CUTE 1.7 + AOD 2 29 May 09:14:08 09:17:43 27° 95° (E) 09:21:22 437.475
Cosmos 2504 29 May 09:15:32 09:22:08 28° 87° (E) 09:28:38 435.465 / 435.565
CUTE-I 29 May 09:25:25 09:26:41 11° 300° (WNW) 09:27:37 437.470
AIST 1 29 May 09:29:11 09:30:33 11° 274° (W) 09:31:39
RS-15 29 May 09:31:23 09:42:18 86° 301° (WNW) 09:53:32 29.354- 29.394
SEEDS 29 May 09:32:36 09:36:28 36° 97° (E) 09:40:21 437.485
Oscar 11 29 May 09:33:21 09:34:24 11° 88° (E) 09:35:43 145.826/435.025
CUBEBUG 2 29 May 09:36:11 09:36:58 11° 87° (E) 09:38:03 437.445
YUBILEINY 29 May 09:38:08 09:45:08 25° 294° (WNW) 09:51:49 435.215
DOVE 4 29 May 09:38:30 09:43:30 58° 99° (E) 09:48:11 437.250
ANTELSAT 29 May 09:38:32 09:40:32 13° 65° (ENE) 09:42:44 437.575/2403.000
COMPASS 1 29 May 09:41:48 09:45:39 37° 97° (E) 09:49:32 437.405
HO-68 29 May 09:42:07 09:49:12 61° 102° (ESE) 09:56:15 435.675
PCSat 29 May 09:46:04 09:51:22 51° 57° (ENE) 09:56:38 145.827
AAUSAT CUBESAT 2 29 May 09:51:43 09:55:38 41° 98° (E) 09:59:34 437.432
DELFI C3 29 May 10:03:07 10:05:42 17° 92° (E) 10:08:26 145.870
POLYITAN 1 29 May 10:07:22 10:08:06 11° 64° (ENE) 10:09:05 437.675
TIGRISAT 29 May 10:08:10 10:11:57 25° 70° (ENE) 10:15:47 435.000
UWE-3 29 May 10:15:53 10:19:26 25° 94° (E) 10:22:59 435.000/436.395/437.385
FUNcube-1 29 May 10:19:21 10:22:30 20° 92° (E) 10:25:43 145.935
GOMX 1 29 May 10:28:02 10:32:43 31° 291° (WNW) 10:37:06 467.674
UNISAT 6 29 May 10:29:02 10:33:27 43° 73° (ENE) 10:37:51 437.425
NANOSAT C BR1 29 May 10:31:51 10:34:51 19° 68° (ENE) 10:38:00 145.865
HUMSAT D 29 May 10:35:13 10:37:08 13° 90° (E) 10:39:16 437.325/437.525
CINEMA 3 29 May 10:35:19 10:40:01 74° 284° (WNW) 10:44:26 145.822/145.860
BRITE-PL 29 May 10:39:10 10:43:01 19° 296° (WNW) 10:46:33 437.365/2234.400
QB50P2 29 May 10:41:16 10:44:45 25° 70° (ENE) 10:48:21 145.880/145.840
SO-50 29 May 10:43:10 10:46:36 19° 43° (NE) 10:50:08 436.795
CANX-2 29 May 10:47:05 10:50:23 22° 290° (WNW) 10:53:36 2200.000
CUTE 1.7 + AOD 2 29 May 10:50:12 10:53:32 23° 290° (WNW) 10:56:47 437.475
DUCHIFAT 1 29 May 10:52:21 10:56:06 31° 71° (ENE) 10:59:56 145.980
POPSAT HIP 1 29 May 10:52:31 10:56:20 32° 71° (ENE) 11:00:12 437.405
50 SAT 29 May 10:56:24 10:57:44 12° 90° (E) 10:59:16 437.505
UKube-1 29 May 10:57:11 11:00:39 24° 95° (E) 11:04:12 .
ZACube-1 29 May 11:00:12 11:04:28 64° 100° (E) 11:08:39 437.345
BUGSAT 1 29 May 11:04:01 11:07:34 29° 71° (ENE) 11:11:15 437.445
Oscar 11 29 May 11:06:48 11:11:03 58° 285° (WNW) 11:15:14 145.826/435.025
Cosmos 2504 29 May 11:07:04 11:15:12 54° 282° (WNW) 11:22:46 435.465 / 435.565
SEEDS 29 May 11:09:12 11:12:01 17° 292° (WNW) 11:14:42 437.485
DX 1 29 May 11:09:21 11:13:23 35° 97° (E) 11:17:25 434.975-435.025
CUBEBUG 2 29 May 11:09:52 11:14:14 60° 285° (WNW) 11:18:26 437.445
ANTELSAT 29 May 11:12:11 11:16:51 65° 259° (W) 11:21:27 437.575/2403.000
DOVE 4 29 May 11:17:39 11:20:43 16° 296° (WNW) 11:23:30 437.250
COMPASS 1 29 May 11:18:21 11:21:05 17° 292° (WNW) 11:23:41 437.405
JUGNU 29 May 11:21:02 11:22:49 11° 179° (S) 11:24:36 437.505
CUBEBUG 1 29 May 11:25:45 11:27:50 13° 90° (E) 11:30:09 437.445
AAUSAT CUBESAT 2 29 May 11:28:28 11:30:57 15° 293° (WNW) 11:33:17 437.432
PCSat 29 May 11:30:25 11:34:27 21° 253° (WSW) 11:38:17 145.827
HO-68 29 May 11:30:47 11:36:29 26° 299° (WNW) 11:41:58 435.675
VELOX 1 29 May 11:33:30 11:37:31 32° 96° (E) 11:41:34 145.980
DANDE 29 May 11:34:55 11:36:59 12° 77° (ENE) 11:39:48 436.750
QB50P1 29 May 11:35:43 11:40:00 78° 258° (WSW) 11:44:20 145.935-145.965
DELFI C3 29 May 11:37:18 11:40:57 33° 288° (WNW) 11:44:32 145.870
POLYITAN 1 29 May 11:39:12 11:43:29 70° 259° (WSW) 11:47:48 437.675
TIGRISAT 29 May 11:44:25 11:48:36 30° 264° (W) 11:52:40 435.000
CUSAT 1 29 May 11:45:17 11:50:21 20° 83° (E) 11:56:08 437.405
ESTCUBE 1 29 May 11:46:37 11:50:27 27° 95° (E) 11:54:22 437.505/2401.250
RS-15 29 May 11:47:27 11:56:38 28° 329° (NNW) 12:05:52 29.354- 29.394
UWE-3 29 May 11:52:18 11:55:56 26° 290° (WNW) 11:59:25 435.000/436.395/437.385
FUNcube-1 29 May 11:55:08 11:58:55 30° 289° (WNW) 12:02:35 145.935
AISAT 29 May 12:05:45 12:10:17 79° 102° (ESE) 12:14:45 437.250
NANOSAT C BR1 29 May 12:06:34 12:10:29 34° 263° (W) 12:14:24 145.865
UNISAT 6 29 May 12:07:12 12:10:26 18° 268° (W) 12:13:30 437.425
HUMSAT D 29 May 12:09:14 12:13:12 44° 287° (WNW) 12:17:05 437.325/437.525
GONETS M04 29 May 12:10:24 12:16:49 24° 83° (E) 12:23:37
QB50P2 29 May 12:16:57 12:20:35 26° 265° (W) 12:24:11 145.880/145.840
SO-50 29 May 12:22:43 12:27:40 65° 241° (WSW) 12:32:29 436.795
DUCHIFAT 1 29 May 12:28:45 12:32:00 20° 267° (W) 12:35:09 145.980
50 SAT 29 May 12:29:02 12:32:45 43° 286° (WNW) 12:36:23 437.505
POPSAT HIP 1 29 May 12:29:04 12:32:17 20° 267° (W) 12:35:25 437.405
UKube-1 29 May 12:33:02 12:36:48 28° 290° (WNW) 12:40:29 .
ZACube-1 29 May 12:39:02 12:40:20 11° 296° (WNW) 12:41:23 437.345
BUGSAT 1 29 May 12:39:49 12:43:05 21° 267° (W) 12:46:17 437.445
SRMSAT 29 May 12:43:26 12:44:56 11° 176° (S) 12:46:29 437.500
DX 1 29 May 12:46:09 12:49:25 20° 292° (WNW) 12:52:33 434.975-435.025
Oscar 19 29 May 12:51:26 12:55:33 25° 67° (ENE) 12:59:46 437.125/150
CUBEBUG 1 29 May 13:00:13 13:04:33 51° 287° (WNW) 13:08:52 437.445
VELOX 1 29 May 13:10:24 13:13:55 22° 292° (WNW) 13:17:19 145.980
DANDE 29 May 13:11:30 13:18:40 67° 94° (E) 13:27:07 436.750
ITAMSAT 1 29 May 13:14:08 13:15:47 12° 61° (ENE) 13:17:44 435.822/435.867
ESTCUBE 1 29 May 13:23:27 13:27:16 27° 290° (WNW) 13:31:01 437.505/2401.250
CUSAT 1 29 May 13:24:36 13:32:07 82° 280° (W) 13:40:32 437.405
SPROUT 29 May 13:28:41 13:33:03 90° 101° (E) 13:37:21 437.525
Cosmos 2499 29 May 13:40:35 13:43:51 14° 82° (E) 13:47:35 435.465 / 435.565
TISAT 1 29 May 13:41:31 13:45:49 90° 58° (ENE) 13:50:04 437.305
AISAT 29 May 13:45:47 13:46:17 10° 297° (WNW) 13:46:30 437.250
Gurwin Techsat 1B 29 May 14:04:11 14:08:51 33° 69° (ENE) 14:13:37 435.225
GONETS M04 29 May 14:04:11 14:13:00 68° 280° (W) 14:21:49
RS-15 29 May 14:07:32 14:14:26 17° 3° (N) 14:21:34 29.354- 29.394
ITUPSAT 1 29 May 14:13:40 14:17:46 29° 95° (E) 14:21:57 437.325
BEESAT 29 May 14:19:27 14:23:46 33° 97° (E) 14:28:06 436.000
SWISSCUBE 29 May 14:28:12 14:32:47 45° 99° (E) 14:37:24 437.505
Oscar 19 29 May 14:29:52 14:34:43 38° 263° (W) 14:39:33 437.125/150
SRMSAT 29 May 14:32:40 14:33:13 10° 187° (S) 14:33:42 437.500
ITAMSAT 1 29 May 14:49:28 14:54:39 86° 260° (W) 14:59:52 435.822/435.867
DANDE 29 May 14:56:21 15:02:45 27° 296° (WNW) 15:09:34 436.750
AO-7 29 May 15:06:15 15:13:23 35° 61° (ENE) 15:20:43 29.400- 29.500
HORYU 2 29 May 15:07:06 15:10:22 21° 68° (ENE) 15:13:45 437.375
CUSAT 1 29 May 15:11:06 15:16:19 18° 301° (WNW) 15:21:18 437.405
O/OREOS (USA 219) 29 May 15:13:51 15:18:10 46° 107° (ESE) 15:22:29 437.305
KKS-1 29 May 15:16:23 15:19:53 23° 94° (E) 15:23:27 437.445
JAS-2 29 May 15:20:06 15:25:55 36° 70° (ENE) 15:31:14 435.910
Cosmos 2499 29 May 15:28:04 15:36:12 86° 96° (E) 15:43:45 435.465 / 435.565
Gurwin Techsat 1B 29 May 15:44:16 15:48:52 29° 265° (W) 15:53:23 435.225
ITUPSAT 1 29 May 15:51:31 15:55:37 28° 291° (WNW) 15:59:39 437.325
BEESAT 29 May 15:57:36 16:01:28 24° 292° (WNW) 16:05:13 436.000
SWISSCUBE 29 May 16:07:00 16:10:21 19° 294° (WNW) 16:13:32 437.505
GONETS M04 29 May 16:08:16 16:11:59 12° 304° (NW) 16:15:01
STARS 29 May 16:13:05 16:17:28 60° 101° (E) 16:21:48 437.465
RS-15 29 May 16:21:53 16:31:54 34° 37° (NE) 16:42:31 29.354- 29.394
HORYU 2 29 May 16:42:41 16:46:49 35° 263° (W) 16:50:55 437.375
KKS-1 29 May 16:52:36 16:56:34 31° 290° (WNW) 17:00:27 437.445
BEESAT 2 29 May 16:53:08 16:55:46 17° 111° (ESE) 16:58:34 435.950
O/OREOS (USA 219) 29 May 16:54:50 16:57:53 17° 304° (NW) 17:00:47 437.305
AO-7 29 May 16:57:52 17:05:56 53° 259° (W) 17:14:00 29.400- 29.500
JAS-2 29 May 17:05:05 17:11:03 33° 263° (W) 17:16:20 435.910
MOZHAYETS 4 29 May 17:05:16 17:09:11 28° 95° (E) 17:13:10
CUTE-I 29 May 17:24:55 17:28:20 18° 64° (ENE) 17:31:57 437.470
Cosmos 2499 29 May 17:25:26 17:30:22 17° 296° (WNW) 17:34:42 435.465 / 435.565
